Weather History for KDAA - November, 2012

Change the Weather History Date:

Monday, November 19, 2012

  Actual Average Record
Temperature  
Mean Temperature 48 °F -  
Max Temperature 54 °F 55 °F 71 °F (2001)
Min Temperature 42 °F 33 °F 14 °F (2014)
Degree Days  
Heating Degree Days 17    
Moisture  
Dew Point 37 °F    
Average Humidity 63    
Maximum Humidity 74    
Minimum Humidity 54    
Precipitation  
Precipitation 0.00 in - - ()
Sea Level Pressure  
Sea Level Pressure 30.38 in    
Wind  
Wind Speed 4 mph (North)    
Max Wind Speed 9 mph    
Max Gust Speed -    
Visibility 10 miles    
Events      
Averages and records for this station are not official NWS values.
T = Trace of Precipitation, MM = Missing Value Source: NWS Daily Summary

Daily Weather History Graph

Daily Weather History Graph

Search for Another Location

Airport or City:

Trip Planner

Search our weather history database for the weather conditions in past years. The results will help you decide how hot, cold, wet, or windy it might be!

Date:

Astronomy

Nov. 19, 2012 Rise Set
Actual Time 6:55 AM EST 4:52 PM EST
Civil Twilight 6:27 AM EST 5:20 PM EST
Nautical Twilight 5:54 AM EST 5:53 PM EST
Astronomical Twilight 5:23 AM EST 6:24 PM EST
Moon 11:58 AM EST (11/19) 11:15 PM EST (11/19)
Length of Visible Light 10h 53m
Length of Day
9h 56m
Waxing Crescent, 40% of the Moon is Illuminated
Nov 19
Waxing Crescent
Nov 20
First Quarter
Nov 28
Full
Dec 6
Last Quarter
Dec 13
New

Hourly Weather History & Observations

Time (EST) Temp. Dew Point Humidity Pressure Visibility Wind Dir Wind Speed Gust Speed Precip Events Conditions
12:55 AM 48.0 °F 37.2 °F 66% 30.49 in 10.0 mi NNE 3.5 mph - N/A   Overcast
1:55 AM 47.8 °F 36.9 °F 66% 30.49 in 10.0 mi NE 3.5 mph - N/A   Overcast
2:55 AM 47.7 °F 36.9 °F 66% 30.49 in 10.0 mi Calm Calm - N/A   Overcast
3:55 AM 47.5 °F 37.2 °F 68% 30.46 in 10.0 mi Variable 4.6 mph - N/A   Overcast
4:55 AM 47.5 °F 37.2 °F 68% 30.46 in 10.0 mi North 4.6 mph - N/A   Overcast
6:55 AM 47.7 °F 37.4 °F 68% 30.46 in 10.0 mi Variable 3.5 mph - N/A   Overcast
7:55 AM 47.5 °F 37.2 °F 68% 30.45 in 10.0 mi Variable 3.5 mph - N/A   Overcast
8:55 AM 48.0 °F 37.4 °F 67% 30.46 in 10.0 mi Variable 6.9 mph - N/A   Mostly Cloudy
9:55 AM 48.9 °F 37.8 °F 65% 30.44 in 10.0 mi NNE 5.8 mph - N/A   Overcast
10:55 AM 50.5 °F 37.8 °F 62% 30.43 in 10.0 mi North 9.2 mph - N/A   Overcast
11:55 AM 51.4 °F 38.3 °F 61% 30.40 in 10.0 mi Variable 4.6 mph - N/A   Overcast
12:55 PM 53.6 °F 38.5 °F 57% 30.35 in 10.0 mi Variable 6.9 mph - N/A   Overcast
1:55 PM 54.9 °F 38.7 °F 54% 30.33 in 10.0 mi Variable 5.8 mph - N/A   Overcast
2:55 PM 54.7 °F 38.3 °F 54% 30.33 in 10.0 mi NNW 5.8 mph - N/A   Overcast
3:55 PM 53.4 °F 37.9 °F 56% 30.32 in 10.0 mi NW 8.1 mph - N/A   Mostly Cloudy
4:55 PM 51.6 °F 37.4 °F 58% 30.31 in 10.0 mi NW 5.8 mph - N/A   Mostly Cloudy
5:55 PM 50.2 °F 37.4 °F 62% 30.31 in 10.0 mi NW 3.5 mph - N/A   Scattered Clouds
6:55 PM 49.6 °F 37.6 °F 63% 30.31 in 10.0 mi NW 4.6 mph - N/A   Overcast
7:55 PM 49.8 °F 37.4 °F 62% 30.30 in 10.0 mi Calm Calm - N/A   Overcast
9:55 PM 46.9 °F 34.0 °F 61% 30.26 in 10.0 mi Calm Calm - N/A   Scattered Clouds
10:55 PM 42.6 °F 34.9 °F 74% 30.26 in 9.0 mi Calm Calm - N/A   Mostly Cloudy
11:55 PM 44.4 °F 35.4 °F 71% 30.25 in 10.0 mi Calm Calm - N/A   Overcast